FW8363 Weather Reports


time (UTC)temp
F
wind
direction
speed
knots
gust
knots
rain 1hr
in
rain 24hr
in
rain mn
in
humidity
%
barometer
mb
20260507161044 -45 344 0.0 6.1 0.00 0.00 0.00 1018.5
20260507155029 -46 122 2.6 7.0 0.00 0.00 0.00 1018.5
20260507154157 -46 138 2.6 7.0 0.00 0.00 0.00 1018.6
20260507152547 -46 82 3.5 6.1 0.00 0.00 0.00 1018.6
20260507151012 -44 234 0.0 6.1 0.00 0.00 0.00 1018.7
20260507145114 -44 134 1.7 6.1 0.00 0.00 0.00 1018.7
20260507143508 -46 134 2.6 7.0 0.00 0.00 0.00 1018.6
20260507142652 -46 153 3.5 6.1 0.00 0.00 0.00 1018.6
20260507141044 -46 142 1.7 5.2 0.00 0.00 0.00 1018.6
20260507135032 -46 136 2.6 7.8 0.00 0.00 0.00 1018.5
20260507132621 -45 128 0.9 5.2 0.00 0.00 0.00 1018.3
20260507131010 -45 157 2.6 6.1 0.00 0.00 0.00 1018.2
20260507125029 -45 124 1.7 6.1 0.00 0.00 0.00 1018.0
20260507122607 -45 138 3.5 7.0 0.00 0.00 0.00 1018.1
20260507115113 -46 130 1.7 5.2 0.00 0.00 0.00 1017.5
20260507113507 -46 130 0.9 6.1 0.00 0.00 0.00 1017.4
20260507112651 -46 130 0.0 4.3 0.00 0.00 0.00 1017.4
20260507111043 -46 192 0.9 4.3 0.00 0.00 0.00 1017.3
20260507104200 -46 156 4.3 8.7 0.00 0.00 0.00 1016.7
20260507102629 -46 138 2.6 7.8 0.00 0.00 0.00 1016.7
20260507101021 -46 149 2.6 7.0 0.00 0.00 0.00 1016.6
20260507095651 -46 114 2.6 6.1 0.00 0.00 0.00 1016.6
20260507094043 -44 117 4.3 7.0 0.00 0.00 0.00 1016.5
20260507091646 -44 122 2.6 7.0 0.00 0.00 0.00 1016.4
20260507084137 -46 134 3.5 9.6 0.00 0.00 0.00 1016.3
20260507082544 -46 128 3.5 7.8 0.00 0.00 0.00 1016.3
20260507075124 -44 124 5.2 9.6 0.00 0.00 0.00 1016.5
20260507072630 -46 141 5.2 9.6 0.00 0.00 0.00 1016.6
20260507071021 -46 117 5.2 8.7 0.00 0.00 0.00 1016.8
20260507064605 -46 115 6.1 11.3 0.00 0.00 0.00 1017.0
20260507063043 -44 134 6.1 8.7 0.00 0.00 0.00 1017.4
20260507060634 -46 122 5.2 9.6 0.00 0.00 0.00 1017.3
20260507055028 -46 98 4.3 10.4 0.00 0.00 0.00 1017.3
20260507052629 -46 119 6.1 9.6 0.00 0.00 0.00 1017.4
20260507051005 -44 117 5.2 9.6 0.00 0.00 0.00 1017.6
20260507045009 -46 125 5.2 7.8 0.00 0.00 0.00 1017.7
20260507044158 -46 120 4.3 8.7 0.00 0.00 0.00 1017.9
20260507042609 -46 134 4.3 8.7 0.00 0.00 0.00 1018.0
20260507035006 -44 100 7.0 10.4 0.00 0.00 0.00 1018.0
20260507034157 -44 122 5.2 9.6 0.00 0.00 0.00 1018.0
20260507032543 -46 121 6.1 9.6 0.00 0.00 0.00 1018.1
20260507025028 -44 107 6.1 8.7 0.00 0.00 0.00 1017.9
20260507022606 -46 111 6.1 9.6 0.00 0.00 0.00 1017.8
20260507021024 -46 101 4.3 8.7 0.00 0.00 0.00 1017.7
20260507015012 -46 90 4.3 8.7 0.00 0.00 0.00 1017.6
20260507012628 -46 74 3.5 7.8 0.00 0.00 0.00 1017.6
20260507011021 -46 60 4.3 7.8 0.00 0.00 0.00 1017.7
20260507005027 -46 90 2.6 4.3 0.00 0.00 0.00 1017.8
20260507002605 -44 95 1.7 5.2 0.00 0.00 0.00 1017.6
20260506235035 -46 130 3.5 6.1 0.00 0.00 0.00 1017.4
20260506232649 -45 147 4.3 7.0 0.00 0.00 0.00 1017.3
20260506231043 -46 94 4.3 7.0 0.00 0.00 0.00 1017.3
20260506225050 -46 135 2.6 7.0 0.00 0.00 0.00 1017.3
20260506222650 -45 130 3.5 6.1 0.00 0.00 0.00 1017.0
20260506221042 -46 74 3.5 5.2 0.00 0.00 0.00 1017.0
20260506214143 -46 107 4.3 7.8 0.00 0.00 0.00 1017.0
20260506212542 -44 128 5.2 7.8 0.00 0.00 0.00 1017.0
20260506210048 -46 105 3.5 7.0 0.00 0.00 0.00 1016.9
20260506204158 -44 157 4.3 9.6 0.00 0.00 0.00 1017.1
20260506202542 -46 130 5.2 9.6 0.00 0.00 0.00 1017.2
20260506195053 -44 178 4.3 7.8 0.00 0.00 0.00 1017.4
20260506192628 -45 157 3.5 7.8 0.00 0.00 0.00 1017.5
20260506191020 -45 157 5.2 8.7 0.00 0.00 0.00 1017.7
20260506185028 -45 155 3.5 9.6 0.00 0.00 0.00 1017.9
20260506182615 -45 180 2.6 6.1 0.00 0.00 0.00 1018.2
20260506181019 -45 131 2.6 7.8 0.00 0.00 0.00 1018.4
20260506175010 -45 117 3.5 7.0 0.00 0.00 0.00 1018.5
20260506174158 -45 122 4.3 7.8 0.00 0.00 0.00 1018.6
20260506172541 -44 121 6.1 9.6 0.00 0.00 0.00 1018.7
20260506165135 -44 94 3.5 7.8 0.00 0.00 0.00 1018.8
20260506163534 -45 118 4.3 7.8 0.00 0.00 0.00 1018.9